+ View the NASA Portal
+ Center for Near-Earth Object Studies
IMPORTANT:
The SSD Announcement email list is now available. Major changes are coming in the near future, including possible hostname and/or URL changes. To be notified of such changes, subscribe to this email list.
Please visit
this page
for more details.
Don't show this message again
JPL Small-Body Database Browser
Search:
[
help
]
413190 (2002 TE350)
Classification:
Main-belt Asteroid
SPK-ID:
2413190
[
Ephemeris
|
Orbit Diagram
|
Orbital Elements
|
Mission Design
|
Physical Parameters
|
Discovery Circumstances
|
Close-Approach Data
]
[ show orbit diagram ]
Orbital Elements at Epoch 2458600.5 (2019-Apr-27.0) TDB
Reference:
JPL 11
(heliocentric ecliptic J2000)
Element
Value
Uncertainty (1-sigma)
Units
e
.1087852426586895
1.3101e-07
a
3.188989268073162
3.1779e-08
au
q
2.842074296709867
4.1667e-07
au
i
9.746749990557827
1.1278e-05
deg
node
271.3673375107626
6.9727e-05
deg
peri
66.1546924680523
8.2866e-05
deg
M
332.9938166235658
4.2413e-05
deg
t
p
2458756.541000027525
(2019-Sep-30.04100003)
0.00024532
TDB
period
2080.070301934174
5.69
3.1092e-05
8.513e-08
d
yr
n
.1730710734465323
2.587e-09
deg/d
Q
3.535904239436458
3.5236e-08
au
Orbit Determination Parameters
# obs. used (total)
98
data-arc span
6242 days (17.09 yr)
first obs. used
2002-07-21
last obs. used
2019-08-23
planetary ephem.
DE431
SB-pert. ephem.
SB431-N16
condition code
0
norm. resid. RMS
.55671
source
ORB
producer
Otto Matic
solution date
2019-Sep-24 07:26:14
Additional Information
Earth MOID
= 1.84914 au
Jupiter MOID
= 1.83325 au
T_jup
= 3.166
[ show covariance matrix ]
[
Ephemeris
|
Orbit Diagram
|
Orbital Elements
|
Mission Design
|
Physical Parameters
|
Discovery Circumstances
|
Close-Approach Data
]
Physical Parameter Table
Parameter
Symbol
Value
Units
Sigma
Reference
Notes
absolute magnitude
H
16.3
n/a
MPO368775
413190 (2002 TE350)
Discovered 2002-Oct-10 by Sloan Digital Sky Survey at Apache Point
Reference:
Last Updated:
2014-11-10
[ hide close-approach data ]
Close-Approach Data
...sorted by
Date/Time (TDB)
Date/Time (TDB)
Time Uncertainty
(days_HH:MM)
Body
Nominal Distance (au)
Minimum Distance (au)
Maximum Distance (au)
V-relative (km/s)
V-infinity (km/s)
JD (TDB)
Time Uncertainty (minutes)
Semi-major axis (km)
Semi-minor axis (km)
range-LOV angle (deg)
N-sigma
BP
Orbit Ref.
Reference
Modified
1908-Sep-10 05:47
00:04
Jupiter
1.98023925329692
1.98023754135378
1.98024096525244
3.02895821665303
2.88428725177371
2418194.740724653
4.42925953866909
536.545974482486
62.3890480995354
-82.5848219356432
1048031.99790574
T
11
CATAB v2.0f-lin.ifort 2019-Sep-24 07:26:15
2019-Sep-24 07:26
1919-Aug-24 13:18
00:04
Jupiter
1.87995529123204
1.87995387107084
1.87995671139389
3.64284104382749
3.51698473956121
2422195.053995125
3.66100055996112
256.636629144327
66.3376756669595
-85.5031973924268
975950.996006813
T
11
CATAB v2.0f-lin.ifort 2019-Sep-24 07:26:15
2019-Sep-24 07:26
1930-Aug-12 15:24
00:03
Jupiter
1.87813112298555
1.8781299358804
1.87813231009359
4.13275338592508
4.02214695383489
2426201.141385195
3.17811371246381
253.380935727159
46.3599749470874
-84.3602234067575
1405433.1302297
T
11
CATAB v2.0f-lin.ifort 2019-Sep-24 07:26:15
2019-Sep-24 07:26
2050-Sep-18 11:09
00:02
Jupiter
1.94640802665572
1.94640675117267
1.94640930213989
3.20555222731599
3.06679324920236
2470067.964456953
1.97824405834162
366.8298292433
45.624113934479
-84.9786664208915
947877.439466699
T
11
CATAB v2.0f-lin.ifort 2019-Sep-24 07:26:15
2019-Sep-24 07:26
2061-Sep-02 04:40
00:02
Jupiter
1.8902007414426
1.89019951381968
1.89020196906778
3.88888869743858
3.77190010057535
2474069.694590640
2.42529983293843
215.640161912436
46.4831430772487
-81.7914005173339
1096637.83903039
T
11
CATAB v2.0f-lin.ifort 2019-Sep-24 07:26:15
2019-Sep-24 07:26
2072-Aug-18 18:38
00:03
Jupiter
1.93825231238703
1.93825110321899
1.9382535215607
4.4112669628386
4.31106364634736
2478073.276282387
2.98523119118048
235.908637103601
36.9104133019684
-80.037955404716
1791718.03734055
T
11
CATAB v2.0f-lin.ifort 2019-Sep-24 07:26:15
2019-Sep-24 07:26
2192-Sep-30 16:04
00:08
Jupiter
1.94576126664194
1.94575968770119
1.94576284558413
3.4631969632384
3.33513113085413
2521945.169618453
7.99345775000546
289.960310379897
89.0519903715382
-83.5853035202472
664934.198260814
T
11
CATAB v2.0f-lin.ifort 2019-Sep-24 07:26:15
2019-Sep-24 07:26
[
Ephemeris
|
Orbit Diagram
|
Orbital Elements
|
Mission Design
|
Physical Parameters
|
Discovery Circumstances
|
Close-Approach Data
]
2019-Dec-16 11:19 UT
(server date/time)
Site Manager:
Ryan S. Park
Webmaster
:
Alan B. Chamberlin